This is the latest recevied weather packets stored in our database for station/object HB9Y1. If no packets are shown the sender has not sent any weather packets the latest 10 day(s).
| Time | Temp. | Humidity | Pressure | Rain* | Wind** | Luminosity | Snow |
|---|---|---|---|---|---|---|---|
| 1777453406 | 8.33° C | 88% | 1014.9 hPa | 0 mm | - | 249 W/m² | - |
| 1777448606 | 7.78° C | 93% | 1014.9 hPa | 0 mm | - | 207 W/m² | - |
| 1777439006 | 5.56° C | 90% | 1014.5 hPa | 0 mm | - | 17 W/m² | - |
| 1777429406 | 5° C | 98% | 1014.5 hPa | 0 mm | - | 0 W/m² | - |
| 1777427598 | 5° C | 97% | 1014.5 hPa | 0 mm | - | 0 W/m² | - |
| 1777422798 | 4.44° C | 99% | 1014.9 hPa | 0 mm | - | 0 W/m² | - |
| 1777421022 | 4.44° C | 99% | 1014.9 hPa | 0 mm | - | 0 W/m² | - |
| 1777419197 | 4.44° C | 99% | 1014.9 hPa | 0 mm | - | 0 W/m² | - |
| 1777413197 | 5° C | 99% | 1015.3 hPa | 0 mm | - | 0 W/m² | - |
| 1777409597 | 5.56° C | 97% | 1014.9 hPa | 0 mm | - | 0 W/m² | - |
| 1777409005 | 5.56° C | 95% | 1014.9 hPa | 0 mm | - | 0 W/m² | - |
| 1777407805 | 5.56° C | 94% | 1014.9 hPa | 0 mm | - | 0 W/m² | - |
| 1777405405 | 5.56° C | 97% | 1014.9 hPa | 0 mm | - | 0 W/m² | - |
| 1777403005 | 5° C | 99% | 1014.5 hPa | 0 mm | - | 0 W/m² | - |
| 1777399405 | 5° C | 99% | 1014.5 hPa | 0 mm | - | 5 W/m² | - |
| 1777397617 | 5° C | 99% | 1014.5 hPa | 0 mm | - | 17 W/m² | - |
| 1777397002 | 5° C | 99% | 1014.5 hPa | 0 mm | - | 20 W/m² | - |
| 1777392202 | 5.56° C | 99% | 1014.8 hPa | 0 mm | - | 67 W/m² | - |
| 1777387422 | 7.22° C | 99% | 1014.9 hPa | 0.25 mm | - | 49 W/m² | - |
| 1777382602 | 8.89° C | 79% | 1014.5 hPa | 0 mm | - | 104 W/m² | - |
| 1777381425 | 8.89° C | 78% | 1014.5 hPa | 0 mm | - | 196 W/m² | - |
| 1777377821 | 11.67° C | 72% | 1013.7 hPa | 0 mm | - | 179 W/m² | - |
| 1777371281 | 11.67° C | 64% | 1014.5 hPa | 0 mm | - | 465 W/m² | - |
| 1777369469 | 11.11° C | 65% | 1014.5 hPa | 0 mm | - | 458 W/m² | - |
| 1777361661 | 10.56° C | 67% | 1014.5 hPa | 0 mm | - | 253 W/m² | - |
* Rain latest hour (hover to see other rain measurements)
** Current wind speed in m/s (hover to see current wind gust speed)